Lid_Strength_Index
1 1 0 0 0 -0 -0 -1 -1 -1 -1 -1 -1 -1 -1 -0 -0 1 4 2 0 -2 -0 3 3 3 2 4 4 5 8 9 8 8 7 6 7 6 5 6 6 6 6 6 6
1 1 1 0 0 -0 -0 -1 -1 -1 -1 -1 -1 -1 -0 -0 1 4 0 -2 -2 -2 3 4 5 4 5 5 4 6 8 8 7 6 7 6 6 6 7 6 7 6 6 6 6
1 1 1 0 0 0 -0 -1 -1 -1 -1 -1 -1 -1 -0 0 3 4 -1 -1 -2 0 3 3 4 5 6 5 5 6 8 8 7 6 6 6 7 6 7 7 6 6 6 7 6
0 0 0 0 0 0 -0 -1 -1 -1 -1 -1 -1 -1 0 2 7 3 -1 -2 -2 2 3 4 4 6 7 7 6 8 7 7 6 6 7 7 6 7 6 7 7 6 7 7 7
-0 0 0 0 0 0 -0 -0 -1 -1 -1 -1 -1 -0 1 4 4 1 -1 -1 2 3 4 5 6 6 7 7 6 7 7 7 6 6 7 7 7 7 7 7 7 8 8 8 8
-0 0 0 0 0 0 -0 -0 -1 -1 -1 -1 -1 0 3 6 1 1 2 2 3 3 4 5 6 5 7 7 7 7 7 7 6 7 7 8 7 8 7 7 8 8 9 9 9
-0 -0 0 0 0 0 0 -0 -1 -1 -0 -0 -0 1 4 4 1 2 3 4 3 3 5 4 4 6 6 7 6 7 8 7 7 7 8 7 9 9 7 8 9 9 9 9 10
-0 -0 0 0 0 -0 0 -0 -0 -1 0 -0 -0 3 5 3 0 2 3 4 3 3 4 4 4 5 6 6 7 8 8 9 7 8 8 8 9 8 8 9 9 9 9 10 11
0 0 0 0 0 0 0 -0 0 0 0 0 2 3 5 2 4 2 2 4 4 4 4 4 4 6 7 8 9 8 10 9 8 8 8 9 9 9 9 9 9 9 9 10 10
0 0 0 0 0 0 0 -0 -1 1 1 2 3 5 5 6 4 3 3 4 5 5 6 6 6 8 8 8 11 10 10 9 9 9 9 9 10 9 9 9 9 9 10 10 10
0 -0 0 0 0 0 0 1 3 4 3 4 4 5 6 6 5 5 4 5 5 6 8 7 9 10 8 8 8 9 10 10 8 9 10 9 9 8 9 10 9 9 10 10 11
1 1 -0 -0 -0 0 0 3 3 3 6 3 3 4 6 5 8 6 4 7 7 9 7 9 11 8 7 8 9 10 10 10 8 9 10 10 10 8 9 10 9 9 10 10 11
2 2 1 1 0 0 1 2 2 2 6 5 4 4 6 6 7 7 6 6 8 9 9 10 9 8 9 10 10 10 10 10 10 10 10 10 11 10 8 9 9 9 9 10 11
2 2 2 1 3 2 3 0 -0 1 9 8 7 5 6 5 7 6 5 7 10 10 9 9 7 10 10 10 10 11 9 10 11 12 13 10 14 10 9 10 11 11 11 11 11
2 2 2 2 3 3 2 -1 -0 2 16 8 8 6 6 7 8 9 7 8 9 10 9 10 11 11 11 10 10 11 10 11 11 12 12 12 14 11 9 11 11 11 11 11 11
2 2 2 2 2 2 2 0 2 11 16 11 9 10 9 8 9 9 9 7 7 9 10 9 9 9 10 11 10 10 11 12 12 12 16 13 13 12 12 12 10 11 12 12 12
2 2 2 2 5 2 2 3 12 16 9 12 11 10 10 11 11 11 12 12 12 14 13 11 11 10 10 12 11 11 12 16 17 17 18 13 13 12 10 11 10 12 12 12 12
1 2 2 2 2 4 4 9 17 12 11 10 11 11 12 11 12 12 12 13 11 10 11 13 14 11 10 10 11 13 12 15 21 19 16 16 17 13 11 11 11 10 11 11 12
1 2 2 2 2 4 7 15 14 12 9 11 11 12 12 12 11 12 12 11 10 10 12 13 13 11 10 9 9 12 14 10 14 18 17 15 14 11 13 14 13 11 12 12 12
2 3 4 1 3 5 10 13 11 9 8 8 13 11 12 12 13 12 12 10 10 9 8 10 13 12 12 11 11 11 11 15 15 20 20 15 14 14 15 14 13 13 12 12 12
3 6 3 1 3 7 13 12 9 7 7 9 11 11 11 11 12 12 11 10 9 10 9 9 11 14 13 14 13 14 14 13 13 14 18 18 15 10 10 11 13 12 12 12 12
4 10 2 2 9 9 12 10 9 8 7 8 8 9 10 10 12 12 11 10 9 9 12 10 11 14 13 12 11 11 12 13 15 17 16 16 15 12 9 9 11 11 11 11 11
7 7 2 3 13 12 9 10 9 9 9 9 9 8 8 10 13 10 10 8 8 10 11 10 13 17 15 14 14 15 13 12 13 14 16 17 15 13 12 11 10 11 11 11 11
6 11 7 6 7 10 11 11 11 8 9 8 8 8 9 10 9 10 10 10 9 9 9 9 12 15 17 13 12 15 14 13 13 16 15 15 13 14 13 12 12 11 10 11 11
6 9 8 12 11 10 9 10 12 12 9 8 10 10 11 13 11 11 9 12 11 11 10 10 15 13 12 11 11 13 14 14 15 14 15 13 13 11 12 11 11 11 11 11 12
8 9 9 10 9 10 10 11 11 11 10 11 11 10 9 12 11 12 10 10 11 12 13 12 14 13 15 12 12 14 13 13 14 13 13 13 12 9 10 10 10 10 11 11 11
5 7 7 10 11 11 11 11 11 9 9 8 9 10 11 10 7 7 8 8 9 11 14 14 15 16 17 13 14 17 14 13 13 12 12 14 12 10 11 12 11 11 11 11 11